RYR7NT LKPR-EPMO

Flight info

Callsign RYR7NT
Flight time 0h 57m
Altitude 35000
Route ARTUP DCT LAGAR N871 OKENO Q277 GOGUS
Aircraft B38M/M-SDE1FGHILORVWXY/HB1

Departure

Time 2026-04-22 18:49
Airport Václav Havel Airport Prague (LKPR)

Arrival

Time 2026-04-22 19:46
Airport Warsaw Modlin Airport (EPMO)
Time Latitude Longitude Altitude Speed Heading
2026-04-22 17:58 50.10817 14.26519 1175 ft 0 kts 34°
2026-04-22 18:20 50.10816 14.26519 1179 ft 0 kts 34°
2026-04-22 18:28 50.10800 14.26500 1174 ft 4 kts 38°
2026-04-22 18:28 50.10783 14.26480 1176 ft 4 kts 27°
2026-04-22 18:28 50.10763 14.26475 1178 ft 4 kts 328°
2026-04-22 18:29 50.10750 14.26505 1175 ft 4 kts 294°
2026-04-22 18:29 50.10744 14.26524 1175 ft 1 kts 303°
2026-04-22 18:33 50.10744 14.26525 1175 ft 0 kts 303°
2026-04-22 18:36 50.10749 14.26513 1175 ft 3 kts 303°
2026-04-22 18:36 50.10765 14.26475 1177 ft 6 kts 304°
2026-04-22 18:37 50.10795 14.26410 1178 ft 9 kts 305°
2026-04-22 18:37 50.10831 14.26321 1178 ft 11 kts 285°
2026-04-22 18:37 50.10812 14.26262 1176 ft 10 kts 218°
2026-04-22 18:37 50.10720 14.26164 1179 ft 14 kts 214°
2026-04-22 18:38 50.10634 14.26073 1177 ft 16 kts 214°
2026-04-22 18:38 50.10540 14.25982 1184 ft 14 kts 202°
2026-04-22 18:38 50.10468 14.26044 1188 ft 13 kts 127°
2026-04-22 18:39 50.10355 14.26278 1192 ft 14 kts 127°
2026-04-22 18:39 50.10293 14.26407 1195 ft 15 kts 127°
2026-04-22 18:39 50.10230 14.26537 1198 ft 15 kts 127°
2026-04-22 18:39 50.10168 14.26665 1199 ft 15 kts 127°
2026-04-22 18:40 50.10102 14.26802 1202 ft 16 kts 127°
2026-04-22 18:40 50.10034 14.26943 1205 ft 16 kts 127°
2026-04-22 18:40 50.09964 14.27088 1208 ft 17 kts 127°
2026-04-22 18:40 50.09892 14.27236 1207 ft 19 kts 127°
2026-04-22 18:41 50.09800 14.27398 1208 ft 21 kts 135°
2026-04-22 18:41 50.09693 14.27562 1209 ft 22 kts 136°
2026-04-22 18:41 50.09598 14.27702 1210 ft 17 kts 135°
2026-04-22 18:41 50.09516 14.27830 1215 ft 16 kts 135°
2026-04-22 18:42 50.09435 14.27955 1219 ft 16 kts 134°
2026-04-22 18:42 50.09355 14.28081 1223 ft 17 kts 135°
2026-04-22 18:42 50.09274 14.28207 1227 ft 16 kts 135°
2026-04-22 18:42 50.09231 14.28268 1229 ft 0 kts 144°
2026-04-22 18:45 50.09201 14.28289 1232 ft 10 kts 168°
2026-04-22 18:45 50.09154 14.28276 1236 ft 2 kts 209°
2026-04-22 18:46 50.09153 14.28275 1236 ft 0 kts 210°
2026-04-22 18:47 50.09125 14.28243 1240 ft 14 kts 219°
2026-04-22 18:47 50.09078 14.28101 1232 ft 14 kts 308°
2026-04-22 18:47 50.09095 14.28066 1238 ft 0 kts 306°
2026-04-22 18:48 50.09125 14.28006 1242 ft 31 kts 308°
2026-04-22 18:48 50.09415 14.27409 1221 ft 105 kts 307°
2026-04-22 18:48 50.09964 14.26259 1319 ft 148 kts 308°
2026-04-22 18:48 50.10631 14.24924 1837 ft 163 kts 309°
2026-04-22 18:49 50.11298 14.23527 2748 ft 157 kts 310°
2026-04-22 18:49 50.11980 14.22109 3497 ft 173 kts 310°
2026-04-22 18:49 50.12747 14.20513 4148 ft 194 kts 310°
2026-04-22 18:49 50.13604 14.18734 4682 ft 216 kts 310°
2026-04-22 18:50 50.14537 14.16792 4872 ft 227 kts 310°
2026-04-22 18:50 50.15497 14.14793 4941 ft 232 kts 310°
2026-04-22 18:50 50.16464 14.12780 4973 ft 233 kts 310°
2026-04-22 18:50 50.17433 14.10765 4990 ft 232 kts 310°
2026-04-22 18:51 50.18401 14.08750 5002 ft 233 kts 310°
2026-04-22 18:51 50.19386 14.06698 5470 ft 238 kts 310°
2026-04-22 18:51 50.20380 14.04625 6591 ft 239 kts 310°
2026-04-22 18:51 50.21399 14.02501 7474 ft 252 kts 310°
2026-04-22 18:52 50.22587 14.00395 8163 ft 267 kts 327°
2026-04-22 18:52 50.24273 13.99301 9233 ft 260 kts 353°
2026-04-22 18:52 50.25919 13.99052 10237 ft 263 kts 357°
2026-04-22 18:52 50.27787 13.98827 10944 ft 278 kts 358°
2026-04-22 18:53 50.29791 13.98628 11462 ft 298 kts 358°
2026-04-22 18:53 50.31903 13.98752 11901 ft 315 kts 14°
2026-04-22 18:53 50.33928 14.00233 12573 ft 327 kts 37°
2026-04-22 18:53 50.35405 14.02914 13446 ft 334 kts 59°
2026-04-22 18:54 50.36166 14.06427 14350 ft 344 kts 77°
2026-04-22 18:54 50.36451 14.08905 14886 ft 346 kts 76°
2026-04-22 18:54 50.36910 14.12600 15722 ft 349 kts 76°
2026-04-22 18:54 50.37372 14.16375 16155 ft 354 kts 76°
2026-04-22 18:55 50.37829 14.20144 16248 ft 353 kts 76°
2026-04-22 18:55 50.38285 14.23924 16270 ft 353 kts 76°
2026-04-22 18:55 50.38740 14.27714 16832 ft 355 kts 76°
2026-04-22 18:55 50.39196 14.31530 17743 ft 356 kts 77°
2026-04-22 18:56 50.39653 14.35356 18493 ft 360 kts 77°
2026-04-22 18:56 50.40115 14.39238 19180 ft 363 kts 77°
2026-04-22 18:56 50.40578 14.43139 19862 ft 366 kts 77°
2026-04-22 18:56 50.41044 14.47077 20540 ft 369 kts 78°
2026-04-22 18:57 50.41512 14.51042 21255 ft 371 kts 78°
2026-04-22 18:57 50.41981 14.55030 21928 ft 373 kts 78°
2026-04-22 18:57 50.42453 14.59049 22572 ft 376 kts 78°
2026-04-22 18:57 50.43229 14.62940 23089 ft 380 kts 64°
2026-04-22 18:58 50.44762 14.66327 23246 ft 381 kts 46°
2026-04-22 18:58 50.46904 14.68898 23275 ft 384 kts 36°
2026-04-22 18:58 50.49141 14.71194 23252 ft 384 kts 36°
2026-04-22 18:58 50.51385 14.73464 23264 ft 384 kts 36°
2026-04-22 18:59 50.53638 14.75723 23497 ft 386 kts 36°
2026-04-22 18:59 50.55655 14.78467 24076 ft 383 kts 51°
2026-04-22 18:59 50.57192 14.81894 24549 ft 385 kts 61°
2026-04-22 18:59 50.58265 14.85703 25034 ft 386 kts 71°
2026-04-22 19:00 50.59210 14.89725 25547 ft 389 kts 70°
2026-04-22 19:00 50.60151 14.93718 26056 ft 391 kts 70°
2026-04-22 19:00 50.61083 14.97706 26535 ft 393 kts 70°
2026-04-22 19:00 50.62025 15.01755 26974 ft 396 kts 70°
2026-04-22 19:01 50.62977 15.05853 27461 ft 399 kts 70°
2026-04-22 19:01 50.63930 15.09963 27957 ft 401 kts 70°
2026-04-22 19:01 50.64883 15.14087 28454 ft 402 kts 70°
2026-04-22 19:01 50.65841 15.18240 28883 ft 405 kts 70°
2026-04-22 19:02 50.66801 15.22410 29325 ft 407 kts 71°
2026-04-22 19:02 50.67907 15.26593 29756 ft 410 kts 63°
2026-04-22 19:02 50.69456 15.30335 30182 ft 413 kts 59°
2026-04-22 19:02 50.70983 15.34179 30529 ft 415 kts 60°
2026-04-22 19:03 50.72510 15.38110 30951 ft 415 kts 60°
2026-04-22 19:03 50.73998 15.41984 31478 ft 412 kts 61°
2026-04-22 19:03 50.75474 15.45855 31974 ft 410 kts 61°
2026-04-22 19:03 50.76919 15.49654 32502 ft 407 kts 61°
2026-04-22 19:04 50.78365 15.53466 33017 ft 403 kts 62°
2026-04-22 19:04 50.79791 15.57228 33628 ft 398 kts 62°
2026-04-22 19:04 50.81204 15.60963 34222 ft 393 kts 62°
2026-04-22 19:04 50.82602 15.64657 34673 ft 391 kts 62°
2026-04-22 19:05 50.83992 15.68342 34981 ft 393 kts 61°
2026-04-22 19:05 50.85405 15.72093 35195 ft 396 kts 61°
2026-04-22 19:05 50.88227 15.79605 35228 ft 396 kts 61°
2026-04-22 19:06 50.91033 15.87092 35229 ft 396 kts 61°
2026-04-22 19:07 50.95235 15.98348 35205 ft 395 kts 62°
2026-04-22 19:07 50.98016 16.05822 35215 ft 392 kts 62°
2026-04-22 19:08 51.00779 16.13270 35218 ft 392 kts 62°
2026-04-22 19:08 51.03544 16.20747 35214 ft 392 kts 62°
2026-04-22 19:09 51.06234 16.28042 35211 ft 392 kts 62°
2026-04-22 19:09 51.08988 16.35530 35210 ft 391 kts 62°
2026-04-22 19:10 51.11733 16.43018 35205 ft 391 kts 62°
2026-04-22 19:10 51.14463 16.50485 35200 ft 389 kts 62°
2026-04-22 19:11 51.17176 16.57929 35200 ft 389 kts 62°
2026-04-22 19:11 51.19887 16.65388 35194 ft 389 kts 62°
2026-04-22 19:12 51.22598 16.72870 35196 ft 389 kts 62°
2026-04-22 19:12 51.25304 16.80357 35195 ft 389 kts 62°
2026-04-22 19:13 51.28005 16.87855 35186 ft 389 kts 62°
2026-04-22 19:13 51.30697 16.95349 35201 ft 388 kts 62°
2026-04-22 19:14 51.33377 17.02833 35182 ft 388 kts 62°
2026-04-22 19:14 51.36035 17.10277 35178 ft 388 kts 62°
2026-04-22 19:15 51.38270 17.16555 35175 ft 388 kts 62°
2026-04-22 19:15 51.41371 17.25288 35176 ft 388 kts 62°
2026-04-22 19:16 51.44035 17.32815 35181 ft 388 kts 62°
2026-04-22 19:16 51.46693 17.40347 35151 ft 388 kts 62°
2026-04-22 19:17 51.49339 17.47868 35162 ft 387 kts 62°
2026-04-22 19:17 51.51982 17.55405 35174 ft 387 kts 62°
2026-04-22 19:18 51.54618 17.62940 35157 ft 387 kts 62°
2026-04-22 19:18 51.57252 17.70494 35156 ft 387 kts 62°
2026-04-22 19:19 51.59881 17.78057 35155 ft 387 kts 62°
2026-04-22 19:19 51.62501 17.85617 35146 ft 387 kts 62°
2026-04-22 19:20 51.65102 17.93143 35153 ft 387 kts 61°
2026-04-22 19:20 51.67717 18.00735 35146 ft 388 kts 62°
2026-04-22 19:21 51.70330 18.08342 35133 ft 388 kts 62°
2026-04-22 19:21 51.72937 18.15957 35134 ft 388 kts 62°
2026-04-22 19:22 51.75539 18.23576 35131 ft 388 kts 62°
2026-04-22 19:22 51.78137 18.31209 35132 ft 388 kts 61°
2026-04-22 19:23 51.80730 18.38853 35107 ft 388 kts 61°
2026-04-22 19:23 51.83319 18.46506 35125 ft 388 kts 61°
2026-04-22 19:24 51.85897 18.54151 34861 ft 386 kts 61°
2026-04-22 19:24 51.87180 18.57965 34640 ft 385 kts 61°
2026-04-22 19:24 51.88454 18.61754 34453 ft 383 kts 61°
2026-04-22 19:24 51.89726 18.65549 34237 ft 383 kts 61°
2026-04-22 19:25 51.90992 18.69330 34027 ft 382 kts 61°
2026-04-22 19:25 51.92259 18.73118 33803 ft 383 kts 61°
2026-04-22 19:25 51.93529 18.76919 33559 ft 384 kts 61°
2026-04-22 19:25 51.94786 18.80692 32954 ft 380 kts 61°
2026-04-22 19:26 51.96054 18.84500 31857 ft 387 kts 61°
2026-04-22 19:26 51.97341 18.88375 30821 ft 394 kts 61°
2026-04-22 19:26 51.98646 18.92304 30005 ft 395 kts 61°
2026-04-22 19:26 51.99947 18.96231 29101 ft 398 kts 61°
2026-04-22 19:27 52.01273 19.00237 28164 ft 408 kts 60°
2026-04-22 19:27 52.02612 19.04292 27301 ft 416 kts 60°
2026-04-22 19:27 52.04007 19.08524 26621 ft 422 kts 60°
2026-04-22 19:27 52.05334 19.12559 25957 ft 424 kts 60°
2026-04-22 19:28 52.06703 19.16723 25262 ft 425 kts 59°
2026-04-22 19:28 52.08091 19.20954 24548 ft 425 kts 59°
2026-04-22 19:28 52.09476 19.25182 23849 ft 423 kts 59°
2026-04-22 19:28 52.10855 19.29404 23047 ft 421 kts 59°
2026-04-22 19:29 52.12219 19.33584 22311 ft 415 kts 59°
2026-04-22 19:29 52.13565 19.37715 21627 ft 410 kts 58°
2026-04-22 19:29 52.14890 19.41787 20961 ft 406 kts 58°
2026-04-22 19:29 52.16207 19.45842 20275 ft 402 kts 58°
2026-04-22 19:30 52.17085 19.48551 19831 ft 400 kts 58°
2026-04-22 19:30 52.18792 19.53821 18971 ft 396 kts 58°
2026-04-22 19:30 52.20074 19.57788 18317 ft 393 kts 58°
2026-04-22 19:30 52.21343 19.61724 17607 ft 391 kts 58°
2026-04-22 19:31 52.22599 19.65622 16952 ft 387 kts 58°
2026-04-22 19:31 52.23844 19.69494 16327 ft 383 kts 58°
2026-04-22 19:31 52.25078 19.73336 15710 ft 380 kts 58°
2026-04-22 19:31 52.26299 19.77145 15104 ft 377 kts 58°
2026-04-22 19:32 52.27505 19.80911 14513 ft 374 kts 59°
2026-04-22 19:32 52.28709 19.84679 13931 ft 372 kts 59°
2026-04-22 19:32 52.29900 19.88408 13289 ft 369 kts 59°
2026-04-22 19:32 52.31080 19.92111 12705 ft 366 kts 58°
2026-04-22 19:33 52.32252 19.95796 12148 ft 363 kts 58°
2026-04-22 19:33 52.33397 19.99401 11820 ft 352 kts 58°
2026-04-22 19:33 52.34484 20.02827 11646 ft 326 kts 58°
2026-04-22 19:33 52.35501 20.06034 11486 ft 313 kts 58°
2026-04-22 19:34 52.36483 20.09141 11298 ft 300 kts 58°
2026-04-22 19:34 52.37411 20.12077 11129 ft 281 kts 58°
2026-04-22 19:34 52.38288 20.14853 11009 ft 269 kts 57°
2026-04-22 19:34 52.39133 20.17534 10859 ft 261 kts 57°
2026-04-22 19:35 52.39882 20.19913 10736 ft 253 kts 57°
2026-04-22 19:35 52.40683 20.22454 10611 ft 251 kts 57°
2026-04-22 19:35 52.41221 20.24165 10528 ft 258 kts 57°
2026-04-22 19:35 52.42334 20.27713 10380 ft 265 kts 58°
2026-04-22 19:36 52.43166 20.30366 10244 ft 266 kts 58°
2026-04-22 19:36 52.44009 20.33056 10079 ft 265 kts 58°
2026-04-22 19:36 52.44866 20.35793 9791 ft 267 kts 58°
2026-04-22 19:36 52.45699 20.38459 9458 ft 267 kts 58°
2026-04-22 19:37 52.46548 20.41177 9156 ft 267 kts 58°
2026-04-22 19:37 52.47395 20.43894 8868 ft 268 kts 58°
2026-04-22 19:37 52.48242 20.46613 8574 ft 268 kts 58°
2026-04-22 19:37 52.49087 20.49329 8286 ft 268 kts 58°
2026-04-22 19:38 52.49937 20.52062 7993 ft 268 kts 58°
2026-04-22 19:38 52.50784 20.54791 7708 ft 269 kts 58°
2026-04-22 19:38 52.51634 20.57532 7409 ft 269 kts 58°
2026-04-22 19:38 52.52478 20.60255 7128 ft 269 kts 58°
2026-04-22 19:39 52.53293 20.63031 6863 ft 269 kts 66°
2026-04-22 19:39 52.53661 20.66039 6643 ft 269 kts 78°
2026-04-22 19:39 52.53839 20.68061 6419 ft 269 kts 77°
2026-04-22 19:39 52.54025 20.70120 6142 ft 271 kts 77°
2026-04-22 19:40 52.54397 20.74206 5666 ft 274 kts 77°
2026-04-22 19:40 52.54685 20.77340 5339 ft 274 kts 77°
2026-04-22 19:40 52.54968 20.80415 5037 ft 272 kts 77°
2026-04-22 19:40 52.55245 20.83445 4731 ft 271 kts 77°
2026-04-22 19:41 52.55525 20.86499 4495 ft 268 kts 77°
2026-04-22 19:41 52.55722 20.89515 4322 ft 266 kts 90°
2026-04-22 19:41 52.55188 20.92411 4070 ft 270 kts 120°
2026-04-22 19:41 52.53955 20.94709 3818 ft 268 kts 145°
2026-04-22 19:42 52.52258 20.95714 3629 ft 257 kts 182°
2026-04-22 19:42 52.50608 20.95080 3532 ft 236 kts 214°
2026-04-22 19:42 52.49274 20.93612 3489 ft 231 kts 220°
2026-04-22 19:42 52.48147 20.91824 3390 ft 221 kts 245°
2026-04-22 19:43 52.47341 20.87205 3087 ft 204 kts 263°
2026-04-22 19:43 52.47072 20.84985 2931 ft 192 kts 265°
2026-04-22 19:43 52.46839 20.82895 2634 ft 182 kts 267°
2026-04-22 19:44 52.46633 20.80925 2276 ft 171 kts 268°
2026-04-22 19:44 52.46441 20.79064 1974 ft 158 kts 266°
2026-04-22 19:44 52.46266 20.77418 1801 ft 140 kts 269°
2026-04-22 19:44 52.46121 20.75853 1628 ft 138 kts 269°
2026-04-22 19:45 52.45976 20.74292 1383 ft 139 kts 268°
2026-04-22 19:45 52.45832 20.72722 1114 ft 139 kts 265°
2026-04-22 19:45 52.45675 20.71155 872 ft 139 kts 264°
2026-04-22 19:45 52.45537 20.69584 694 ft 138 kts 263°
2026-04-22 19:46 52.45391 20.68053 489 ft 136 kts 263°
2026-04-22 19:46 52.45248 20.66525 344 ft 130 kts 263°
2026-04-22 19:46 52.45132 20.65275 342 ft 76 kts 262°
2026-04-22 19:46 52.45071 20.64643 340 ft 40 kts 261°
2026-04-22 19:47 52.45021 20.64399 349 ft 17 kts 205°
2026-04-22 19:47 52.44915 20.64383 339 ft 14 kts 182°
2026-04-22 19:47 52.44835 20.64377 340 ft 10 kts 182°
2026-04-22 19:47 52.44775 20.64372 340 ft 10 kts 182°
2026-04-22 19:48 52.44714 20.64415 339 ft 11 kts 99°
2026-04-22 19:48 52.44724 20.64554 337 ft 14 kts 81°
2026-04-22 19:48 52.44739 20.64712 336 ft 14 kts 81°
2026-04-22 19:48 52.44754 20.64864 339 ft 14 kts 81°
2026-04-22 19:49 52.44768 20.65008 336 ft 14 kts 81°
2026-04-22 19:49 52.44784 20.65177 339 ft 15 kts 81°
2026-04-22 19:49 52.44794 20.65293 336 ft 10 kts 81°
2026-04-22 19:49 52.44785 20.65356 339 ft 3 kts 161°
2026-04-22 19:50 52.44767 20.65351 340 ft 4 kts 203°
2026-04-22 19:50 52.44757 20.65343 340 ft 2 kts 206°
2026-04-22 19:50 52.44752 20.65339 338 ft 0 kts 207°